Location: Moy Burn
(57.3833°N, 4.0667°W)
Time: 10:16:36
(UTC+00:00)

Cosmos 1271 Rocket - Pass Details

Date: 08 August 2020
Orbit: 499 x 545 km, 81.2° (Epoch: 18 September)

Event Time Altitude Azimuth Distance (km) Brightness Sun altitude
Rises 22:32:37 0° 351° (N) 2,611 7.8 -13.4°
Reaches altitude 10° 22:35:03 10° 5° (N) 1,725 6.3 -13.5°
Maximum altitude 22:38:11 24° 61° (ENE) 1,084 4.3 -13.7°
Enters shadow 22:40:30 14° 108° (ESE) 1,470 4.6 -13.9°
